sat.trackr.live / text

‹ back to catalog

ONEWEB-0630

NORAD 56072 · 2023-043AC

PAYLOAD ACTIVE UNKNOWN

§ Identity

Operator
Country
UK
Launch date
2023-03-26
Launch site
SRILR
Launch vehicle
Mass (kg)
RCS (m²)

Purposes: comms

External: N2YO · Heavens-Above · Gunter

§ Orbital elements

Epoch: 2026-09-19T17:07:27.867936Z

Period
109.46 min
Inclination
87.8994°
Eccentricity
0.0002014
Mean motion
13.15549116 rev/d
Perigee alt
1,200.2 km
Apogee alt
1,203.3 km
Semi-major
7,579.9 km
B*
2.2792e-4
RAAN
240.3503°
Arg perigee
75.6395°
Mean anomaly
284.4958°
Rev number
16,885

§ Raw data

ONEWEB-06301 56072U 23043AC  26262.71351699  .00000099  00000+0  22792-3 0  99932 56072  87.8994 240.3503 0002014  75.6395 284.4958 13.15549116168850

JSON: /api/v1/satellites/56072 · /tle

For live sub-satellite position, see the globe view (requires WebGL).

§ Visibility from observer

Set your observer location to see the next 7 days of passes ≥ 10°. The values pass through the URL so the page stays shareable.

No JS? Fill the form by hand. The geolocation button needs JavaScript.